Lexington Weather

Lexington, Massachusetts, USA

32°F
12/8/2019 4:36pm 
  • Lexington Conditions: Mostly cloudy
  • Temperature: 32.2°F / 0.1°CColder 1.1°F than last hour.
  • Dew Point: 18.7°FIncreased 1.6°Fsince last hour.
  • Relative Humidity: 57%Increased 6.0% since last hour.
  • Wind: Wind from WNW WNW 1 mph, 10-min avg: 2 mph, gust: 5 mph
  • Barometer: 30.40 in Steady
  • Visibility: 10 miles
  • Snow Today: 0.0 in
  •   

Regional Weather Roundup
for Boston / Norton, MA

        
000
ASUS41 KBOX 061010
RWRBOX

REGIONAL WEATHER ROUNDUP
NATIONAL WEATHER SERVICE BOSTON/NORTON MA
500 AM EST FRI DEC 06 2019

NOTE:  "FAIR" INDICATES FEW OR NO CLOUDS BELOW 12,000 FEET WITH NO 
SIGNIFICANT WEATHER AND/OR OBSTRUCTIONS TO VISIBILITY.

MAZALL-061100-
EASTERN MASSACHUSETTS
  
CITY           SKY/WX    TMP DP  RH WIND       PRES   REMARKS
BOSTON         FAIR      31  16  54 W10       30.06R WCI  22          
BEVERLY        FAIR      24  13  62 W7        30.04R WCI  16          
LAWRENCE       FAIR      22  12  65 SW7       30.06R WCI  13          
BEDFORD        FAIR      22  13  68 CALM      30.04R                  
BLUE HILL        N/A     23  15  71 W16       30.01R WCI  10          
NORWOOD        FAIR      28  15  58 SW6       30.06R WCI  22          
MARSHFIELD     FAIR      28  18  64 VRB5G12   30.06R WCI  23          
PLYMOUTH       FAIR      26  17  68 W8        30.07R WCI  18          
TAUNTON        FAIR      29  15  56 SW6       30.07R WCI  23          
NEW BEDFORD    FAIR      29  17  61 W8        30.08R WCI  21          
$$

MAZALL-061100-
CAPE COD AND THE ISLANDS
  
CITY           SKY/WX    TMP DP  RH WIND       PRES   REMARKS
FALMOUTH       CLEAR     28  18  64 W13G20    30.05S WCI  18          
HYANNIS        FAIR      30  16  56 W8        30.05R WCI  22          
CHATHAM        FAIR      29  18  63 W6        30.06R WCI  23          
PROVINCETOWN   FAIR      31  21  66 W18G25    30.05R WCI  19          
NANTUCKET      FAIR      32  20  61 W14       30.07R WCI  22          
MARTHAS VNYRD  FAIR      32  19  58 W8G23     30.08R WCI  25          
$$
 
MAZALL-061100-
CENTRAL AND WESTERN MASSACHUSETTS
  
CITY           SKY/WX    TMP DP  RH WIND       PRES   REMARKS
WORCESTER      FAIR      23  14  68 W13       29.99S WCI  11          
FITCHBURG      FAIR      13   8  81 CALM      30.04R                  
ORANGE         FAIR      22  11  62 SW5       30.04S WCI  16          
SPRINGFIELD    FAIR      28  17  63 S7        30.04F WCI  20          
WESTFIELD      MOCLDY    29  18  63 SE3       30.05F                  
NORTH ADAMS    CLOUDY    27  15  61 W8        30.05R WCI  19          
PITTSFIELD     CLOUDY    26  17  68 SW3       30.00F                  
$$
 
RIZALL-061100-
RHODE ISLAND
  
CITY           SKY/WX    TMP DP  RH WIND       PRES   REMARKS
PROVIDENCE     FAIR      28  18  66 W3        30.09R                  
NEWPORT        FAIR      31  18  58 W8        30.08R WCI  23          
BLOCK ISLAND   FAIR      33  20  58 NW12      30.10S WCI  24          
SMITHFIELD     FAIR      25  17  72 W6        30.06R WCI  18          
WESTERLY       FAIR      31  18  58 W3        30.10S                  
$$
 
CTZALL-061100-
CONNECTICUT
  
CITY           SKY/WX    TMP DP  RH WIND       PRES   REMARKS
BRADLEY INTL   MOCLDY    30  17  58 SW3       30.08S                  
HARTFORD       FAIR      23  17  78 CALM      30.10R                  
BRIDGEPORT     FAIR      34  19  54 W8G17     30.12R WCI  27          
DANBURY        FAIR      31  18  58 SW5       30.10S WCI  26          
GROTON         FAIR      30  20  66 W5        30.10R WCI  25          
NEW HAVEN      FAIR      36  20  52 W6        30.11R WCI  31          
CHESTER        FAIR      28  19  69 W3        30.08R                  
MERIDEN        FAIR      22  19  89 CALM      30.11R                  
WILLIMANTIC    FAIR      23  16  74 CALM      30.09R                  
OXFORD         FAIR      28  19  69 VRB3      30.08R                  
$$

MEZ002-015-021-024-NHZ003-005-008-011-012-014-VTZ005-008-061100-
NORTHERN NEW ENGLAND
  
CITY           SKY/WX    TMP DP  RH WIND       PRES   REMARKS
PORTLAND ME    FAIR      26  12  55 SW5       29.98R WCI  20          
BANGOR ME      FAIR      23  14  68 W6        29.89R WCI  16          
CONCORD NH     FAIR      26  13  57 W8        30.01R WCI  18          
MANCHESTER NH  FAIR      25  14  63 CALM      30.01S                  
NASHUA NH      FAIR      15  13  91 CALM      30.04R                  
PORTSMOUTH NH  PTCLDY    26  13  58 SW6       30.00R WCI  20          
JAFFREY NH     FAIR      19  12  74 SW5       29.99R WCI  12          
KEENE NH       FAIR      15  12  88 S3        30.04R                  
BURLINGTON VT  CLOUDY    27  14  58 NW9       30.03S WCI  18          
MT. WASHINGTON DRFTSNOW   1   1 100 W52         N/A  VSB 1/16WCI -30  
$$

NYZ052-076-061100-
EASTERN NEW YORK
  
CITY           SKY/WX    TMP DP  RH WIND       PRES   REMARKS
ALBANY         CLOUDY    29  19  66 CALM      30.09R                  
NEW YORK CITY  MOCLDY    36  20  52 W5        30.13S                  
$$
 
ANZALL-061100-
MARINE OBSERVATIONS
  
STATION/POSITION TIME  TEMP    WIND        PRES    VSBY  WAVE
                       AIR SEA DIR/SP/G                  HT/PER
                 (UTC) (F)     (DEG/KT/KT) (MB)    (MI)  (FT/S)
BOSTON BUOY      0950   33 48  290/ 21/ 25 1016.4R         3/ 4
BUZZARDS BAY     0900   33     290/ 24/ 27 1018.9R
NANTUCKET SOUND  0940      43              1018.3R
MASS BAY-STELLWA 0904   32 46  310/ 21/ 25 1015.1R  1 7/8  3/ 4
ISLE OF SHOALS   0900   29     290/ 19/ 23 1015.5R
S OF BLOCK IS    1000      51                N/A           7/ 7
$$

......................KEY.........................
  SKY/WX - SKY CONDITION/PRESENT WEATHER
  TMP    - TEMPERATURE IN FAHRENHEIT
  DWPT   - DEWPOINT IN FAHRENHEIT
  RH     - RELATIVE HUMIDITY IN PERCENT
  WIND   - DIRECTION AND SPEED IN MPH
  PRES   - MEAN SEA LEVEL PRESSURE IN INCHES OF HG
  WCI    - WIND CHILL INDEX
  VSB    - VISIBILITY IN MILES
  HX     - HEAT INDEX
  TC     - TEMPERATURE IN CELSIUS
  VRB    - VARIABLE WIND DIRECTION
  N/A    - NOT AVAILABLE
  
      

Other recent Regional Weather Roundups

Sun Dec 8, 4:10pm

Sun Dec 8, 4:01pm

Sun Dec 8, 3:10pm

Sun Dec 8, 3:01pm

Sun Dec 8, 2:10pm

Sun Dec 8, 2:01pm

Sun Dec 8, 1:10pm

Sun Dec 8, 1:00pm

Sun Dec 8, 12:10pm

Sun Dec 8, 12:01pm

Sun Dec 8, 11:10am

Sun Dec 8, 11:00am

Sun Dec 8, 10:10am

Sun Dec 8, 10:01am

Sun Dec 8, 9:10am

Sun Dec 8, 9:00am

Sun Dec 8, 8:10am

Sun Dec 8, 8:00am

Sun Dec 8, 7:10am

Sun Dec 8, 7:00am

Sun Dec 8, 6:10am

Sun Dec 8, 6:00am

Sun Dec 8, 5:10am

Sun Dec 8, 5:00am

Sun Dec 8, 4:10am

Sun Dec 8, 4:00am

Sun Dec 8, 3:10am

Sun Dec 8, 3:00am

Sun Dec 8, 2:10am

Sun Dec 8, 2:00am

Sun Dec 8, 1:10am

Sun Dec 8, 1:00am

Sun Dec 8, 12:10am

Sun Dec 8, 12:01am

Sat Dec 7, 11:10pm

Sat Dec 7, 11:00pm

Sat Dec 7, 10:10pm

Sat Dec 7, 10:00pm

Sat Dec 7, 9:10pm

Sat Dec 7, 9:00pm

Sat Dec 7, 8:10pm

Sat Dec 7, 8:00pm

Sat Dec 7, 7:10pm

Sat Dec 7, 7:00pm

Sat Dec 7, 6:10pm

Sat Dec 7, 6:00pm

Sat Dec 7, 5:10pm

Sat Dec 7, 5:00pm

Sat Dec 7, 4:10pm

Sat Dec 7, 4:00pm

Sat Dec 7, 3:00pm

Sat Dec 7, 2:10pm

Sat Dec 7, 2:01pm

Sat Dec 7, 1:10pm

Sat Dec 7, 1:00pm

Sat Dec 7, 12:10pm

Sat Dec 7, 12:01pm

Sat Dec 7, 11:10am

Sat Dec 7, 11:00am

Sat Dec 7, 10:10am

Sat Dec 7, 10:01am

Sat Dec 7, 9:10am

Sat Dec 7, 9:00am

Sat Dec 7, 8:10am

Sat Dec 7, 8:00am

Sat Dec 7, 7:10am

Sat Dec 7, 7:00am

Sat Dec 7, 6:10am

Sat Dec 7, 6:00am

Sat Dec 7, 5:10am

Sat Dec 7, 5:00am

Sat Dec 7, 4:10am

Sat Dec 7, 4:00am

Sat Dec 7, 3:10am

Sat Dec 7, 3:00am

Sat Dec 7, 2:10am

Sat Dec 7, 2:01am

Sat Dec 7, 1:10am

Sat Dec 7, 1:00am

Sat Dec 7, 12:10am

Sat Dec 7, 12:01am

Fri Dec 6, 11:10pm

Fri Dec 6, 11:00pm

Fri Dec 6, 10:10pm

Fri Dec 6, 10:00pm

Fri Dec 6, 9:10pm

Fri Dec 6, 9:00pm

Fri Dec 6, 8:10pm

Fri Dec 6, 8:00pm

Fri Dec 6, 7:10pm

Fri Dec 6, 7:01pm

Fri Dec 6, 6:10pm

Fri Dec 6, 6:00pm

Fri Dec 6, 5:10pm

Fri Dec 6, 5:00pm

Fri Dec 6, 4:10pm

Fri Dec 6, 4:00pm

Fri Dec 6, 3:10pm

Fri Dec 6, 3:00pm

Fri Dec 6, 2:10pm

Fri Dec 6, 2:00pm

Fri Dec 6, 1:10pm

Fri Dec 6, 1:00pm

Fri Dec 6, 12:10pm

Fri Dec 6, 12:00pm

Fri Dec 6, 11:10am

Fri Dec 6, 11:00am

Fri Dec 6, 10:10am

Fri Dec 6, 10:00am

Fri Dec 6, 9:10am

Fri Dec 6, 9:00am

Fri Dec 6, 8:10am

Fri Dec 6, 8:00am

Fri Dec 6, 7:10am

Fri Dec 6, 7:00am

Fri Dec 6, 6:10am

Fri Dec 6, 6:01am

Fri Dec 6, 5:10am

Fri Dec 6, 5:00am

Fri Dec 6, 4:10am

Fri Dec 6, 4:00am

Fri Dec 6, 3:10am

Fri Dec 6, 3:00am

Fri Dec 6, 2:10am

Fri Dec 6, 2:00am

Fri Dec 6, 1:10am

Fri Dec 6, 1:00am

Fri Dec 6, 12:10am

Fri Dec 6, 12:00am

Thu Dec 5, 11:10pm

Thu Dec 5, 11:00pm

Thu Dec 5, 10:10pm

Thu Dec 5, 10:01pm

Thu Dec 5, 9:10pm

Thu Dec 5, 9:01pm

Thu Dec 5, 8:10pm

Thu Dec 5, 8:00pm

Thu Dec 5, 7:10pm

Thu Dec 5, 7:00pm

Thu Dec 5, 6:10pm

Thu Dec 5, 6:00pm

Thu Dec 5, 5:10pm

Thu Dec 5, 5:00pm

Meta data:

ID: 906eef56-afba-4a2d-9e06-2eeabbc4cb62
Link: https://api.weather.gov/products/cf5b53bf-5862-4b76-ac67-b65f5f987532